Time,TemperatureF,DewpointF,PressureIn,WindDirection,WindDirectionDegrees,WindSpeedMPH,WindSpeedGustMPH,Humidity,HourlyPrecipIn,Conditions,Clouds,dailyrainin,SolarRadiationWatts/m^2,SoftwareType,DateUTC
2013-03-03 00:00:00,49.6,30.2,30.17,NNE,33,0.0,0.0,47,0.00,,,0.00,0,Wunderground v.1.15,2013-03-03 08:00:00,
2013-03-03 00:10:00,49.6,30.2,30.16,NNE,28,0.0,3.0,47,0.00,,,0.00,0,Wunderground v.1.15,2013-03-03 08:10:00,
2013-03-03 00:20:00,49.7,30.3,30.16,North,10,1.0,1.0,47,0.00,,,0.00,0,Wunderground v.1.15,2013-03-03 08:20:00,
2013-03-03 00:30:00,49.7,30.3,30.16,North,11,2.0,2.0,47,0.00,,,0.00,0,Wunderground v.1.15,2013-03-03 08:30:00,
2013-03-03 00:40:00,49.7,30.3,30.16,NNW,343,2.0,2.0,47,0.00,,,0.00,0,Wunderground v.1.15,2013-03-03 08:40:00,
2013-03-03 00:50:00,49.7,30.3,30.16,North,350,2.0,3.0,47,0.00,,,0.00,0,Wunderground v.1.15,2013-03-03 08:50:00,
2013-03-03 01:00:00,49.7,30.3,30.16,NW,317,2.0,3.0,47,0.00,,,0.00,0,Wunderground v.1.15,2013-03-03 09:00:00,
2013-03-03 01:10:00,49.7,30.3,30.16,North,10,3.0,3.0,47,0.00,,,0.00,0,Wunderground v.1.15,2013-03-03 09:10:00,
2013-03-03 01:20:00,49.7,30.3,30.15,NNW,346,3.0,7.0,47,0.00,,,0.00,0,Wunderground v.1.15,2013-03-03 09:20:00,
2013-03-03 01:30:00,49.7,30.3,30.16,North,355,3.0,4.0,47,0.00,,,0.00,0,Wunderground v.1.15,2013-03-03 09:30:00,
2013-03-03 01:40:00,49.6,30.2,30.15,NNE,33,4.0,4.0,47,0.00,,,0.00,0,Wunderground v.1.15,2013-03-03 09:40:00,
2013-03-03 01:45:00,49.7,30.3,30.16,North,355,3.0,6.0,47,0.00,,,0.00,0,Wunderground v.1.15,2013-03-03 09:45:00,
2013-03-03 01:55:00,49.6,30.2,30.16,NNE,24,2.0,2.0,47,0.00,,,0.00,0,Wunderground v.1.15,2013-03-03 09:55:00,
2013-03-03 02:05:00,49.6,30.2,30.16,NNE,30,1.0,2.0,47,0.00,,,0.00,0,Wunderground v.1.15,2013-03-03 10:05:00,
2013-03-03 02:10:00,49.6,30.2,30.15,NE,35,1.0,1.0,47,0.00,,,0.00,0,Wunderground v.1.15,2013-03-03 10:10:00,
2013-03-03 02:20:00,49.6,30.2,30.15,NNE,23,1.0,1.0,47,0.00,,,0.00,0,Wunderground v.1.15,2013-03-03 10:20:00,
2013-03-03 02:30:00,49.5,30.1,30.15,NNW,341,1.0,2.0,47,0.00,,,0.00,0,Wunderground v.1.15,2013-03-03 10:30:00,
2013-03-03 02:35:00,49.5,30.1,30.15,North,349,1.0,6.0,47,0.00,,,0.00,0,Wunderground v.1.15,2013-03-03 10:35:00,
2013-03-03 02:45:00,49.4,30.0,30.14,NE,41,3.0,3.0,47,0.00,,,0.00,0,Wunderground v.1.15,2013-03-03 10:45:00,
2013-03-03 02:55:00,49.4,30.0,30.14,North,9,2.0,2.0,47,0.00,,,0.00,0,Wunderground v.1.15,2013-03-03 10:55:00,
2013-03-03 03:05:00,49.4,30.0,30.14,North,355,1.0,2.0,47,0.00,,,0.00,0,Wunderground v.1.15,2013-03-03 11:05:00,
2013-03-03 03:10:00,49.4,30.0,30.14,North,360,1.0,2.0,47,0.00,,,0.00,0,Wunderground v.1.15,2013-03-03 11:10:00,
2013-03-03 03:20:00,49.2,29.8,30.13,North,355,1.0,1.0,47,0.00,,,0.00,0,Wunderground v.1.15,2013-03-03 11:20:00,
2013-03-03 03:30:00,49.2,29.8,30.14,North,360,1.0,1.0,47,0.00,,,0.00,0,Wunderground v.1.15,2013-03-03 11:30:00,
2013-03-03 03:40:00,49.0,30.1,30.14,NNE,20,1.0,1.0,48,0.00,,,0.00,0,Wunderground v.1.15,2013-03-03 11:40:00,
2013-03-03 03:50:00,48.9,30.1,30.14,NNE,12,1.0,1.0,48,0.00,,,0.00,0,Wunderground v.1.15,2013-03-03 11:50:00,
2013-03-03 04:00:00,48.9,30.1,30.14,NNE,15,1.0,1.0,48,0.00,,,0.00,0,Wunderground v.1.15,2013-03-03 12:00:00,
2013-03-03 04:10:00,48.9,30.1,30.14,North,360,2.0,5.0,48,0.00,,,0.00,0,Wunderground v.1.15,2013-03-03 12:10:00,
2013-03-03 04:20:00,48.8,30.0,30.14,NNE,13,3.0,3.0,48,0.00,,,0.00,0,Wunderground v.1.15,2013-03-03 12:20:00,
2013-03-03 04:25:00,48.8,30.0,30.14,NNE,17,3.0,6.0,48,0.00,,,0.00,0,Wunderground v.1.15,2013-03-03 12:25:00,
2013-03-03 04:35:00,48.8,30.0,30.14,NW,320,2.0,3.0,48,0.00,,,0.00,0,Wunderground v.1.15,2013-03-03 12:35:00,
2013-03-03 04:40:00,48.8,29.4,30.14,North,360,2.0,2.0,47,0.00,,,0.00,0,Wunderground v.1.15,2013-03-03 12:40:00,
2013-03-03 04:50:00,48.7,29.4,30.14,North,355,2.0,2.0,47,0.00,,,0.00,0,Wunderground v.1.15,2013-03-03 12:50:00,
2013-03-03 05:00:00,48.6,29.3,30.14,NNW,343,3.0,3.0,47,0.00,,,0.00,0,Wunderground v.1.15,2013-03-03 13:00:00,
2013-03-03 05:10:00,48.7,29.4,30.14,NNE,32,1.0,1.0,47,0.00,,,0.00,0,Wunderground v.1.15,2013-03-03 13:10:00,
2013-03-03 05:20:00,48.7,29.4,30.14,North,10,1.0,1.0,47,0.00,,,0.00,0,Wunderground v.1.15,2013-03-03 13:20:00,
2013-03-03 05:30:00,48.7,29.4,30.14,NNE,33,2.0,2.0,47,0.00,,,0.00,0,Wunderground v.1.15,2013-03-03 13:30:00,
2013-03-03 05:35:00,48.7,29.4,30.14,NNE,22,2.0,2.0,47,0.00,,,0.00,0,Wunderground v.1.15,2013-03-03 13:35:00,
2013-03-03 05:45:00,48.7,29.4,30.14,NE,38,2.0,3.0,47,0.00,,,0.00,0,Wunderground v.1.15,2013-03-03 13:45:00,
2013-03-03 05:50:00,48.7,29.4,30.14,NE,40,1.0,1.0,47,0.00,,,0.00,0,Wunderground v.1.15,2013-03-03 13:50:00,
2013-03-03 06:00:00,48.6,29.3,30.14,NNE,24,1.0,2.0,47,0.00,,,0.00,0,Wunderground v.1.15,2013-03-03 14:00:00,
2013-03-03 06:10:00,48.5,29.2,30.14,North,5,1.0,1.0,47,0.00,,,0.00,0,Wunderground v.1.15,2013-03-03 14:10:00,
2013-03-03 06:20:00,48.3,29.0,30.14,NNW,336,1.0,3.0,47,0.00,,,0.00,0,Wunderground v.1.15,2013-03-03 14:20:00,
2013-03-03 06:30:00,48.3,29.0,30.13,North,360,1.0,1.0,47,0.00,,,0.00,0,Wunderground v.1.15,2013-03-03 14:30:00,
2013-03-03 06:35:00,48.3,29.0,30.13,North,360,0.0,1.0,47,0.00,,,0.00,0,Wunderground v.1.15,2013-03-03 14:35:00,
2013-03-03 06:45:00,48.2,28.9,30.13,North,360,0.0,0.0,47,0.00,,,0.00,0,Wunderground v.1.15,2013-03-03 14:45:00,
2013-03-03 06:55:00,48.2,28.9,30.13,NNE,32,0.0,1.0,47,0.00,,,0.00,0,Wunderground v.1.15,2013-03-03 14:55:00,
2013-03-03 07:05:00,48.2,28.9,30.13,NNE,32,0.0,1.0,47,0.00,,,0.00,7,Wunderground v.1.15,2013-03-03 15:05:00,
2013-03-03 07:10:00,48.2,28.9,30.13,NNE,32,0.0,0.0,47,0.00,,,0.00,9,Wunderground v.1.15,2013-03-03 15:10:00,
2013-03-03 07:20:00,48.2,28.9,30.13,NNW,348,0.0,0.0,47,0.00,,,0.00,14,Wunderground v.1.15,2013-03-03 15:20:00,
2013-03-03 07:30:00,48.2,28.9,30.13,NNE,19,0.0,0.0,47,0.00,,,0.00,23,Wunderground v.1.15,2013-03-03 15:30:00,
2013-03-03 07:40:00,48.2,28.9,30.13,NNE,20,0.0,0.0,47,0.00,,,0.00,30,Wunderground v.1.15,2013-03-03 15:40:00,
2013-03-03 07:45:00,48.2,28.9,30.12,NNE,24,0.0,0.0,47,0.00,,,0.00,33,Wunderground v.1.15,2013-03-03 15:45:00,
2013-03-03 07:55:00,48.4,29.1,30.12,NNE,20,0.0,0.0,47,0.00,,,0.00,44,Wunderground v.1.15,2013-03-03 15:55:00,
2013-03-03 08:00:00,48.5,29.2,30.13,NNE,19,0.0,0.0,47,0.00,,,0.00,47,Wunderground v.1.15,2013-03-03 16:00:00,
2013-03-03 08:10:00,48.5,29.2,30.13,NNE,18,0.0,0.0,47,0.00,,,0.00,53,Wunderground v.1.15,2013-03-03 16:10:00,
2013-03-03 08:20:00,48.6,29.3,30.13,NNE,20,0.0,0.0,47,0.00,,,0.00,63,Wunderground v.1.15,2013-03-03 16:20:00,
2013-03-03 08:30:00,48.7,29.4,30.13,NNE,22,0.0,0.0,47,0.00,,,0.00,81,Wunderground v.1.15,2013-03-03 16:30:00,
2013-03-03 08:35:00,48.8,29.4,30.13,South,186,0.0,0.0,47,0.00,,,0.00,118,Wunderground v.1.15,2013-03-03 16:35:00,
2013-03-03 08:45:00,49.0,29.6,30.13,South,178,1.0,3.0,47,0.00,,,0.00,165,Wunderground v.1.15,2013-03-03 16:45:00,
2013-03-03 08:50:00,49.1,29.7,30.13,SSW,192,1.0,2.0,47,0.00,,,0.00,202,Wunderground v.1.15,2013-03-03 16:50:00,
2013-03-03 09:00:00,49.5,30.1,30.13,SE,136,1.0,1.0,47,0.00,,,0.00,135,Wunderground v.1.15,2013-03-03 17:00:00,
2013-03-03 09:05:00,49.6,30.2,30.13,WSW,251,1.0,1.0,47,0.00,,,0.00,135,Wunderground v.1.15,2013-03-03 17:05:00,
2013-03-03 09:10:00,49.5,30.1,30.13,WNW,301,1.0,1.0,47,0.00,,,0.00,148,Wunderground v.1.15,2013-03-03 17:10:00,
2013-03-03 09:20:00,49.5,30.1,30.13,SSE,158,0.0,0.0,47,0.00,,,0.00,142,Wunderground v.1.15,2013-03-03 17:20:00,
2013-03-03 09:25:00,49.5,30.1,30.13,SSE,158,0.0,0.0,47,0.00,,,0.00,149,Wunderground v.1.15,2013-03-03 17:25:00,
2013-03-03 09:35:00,49.6,30.2,30.12,SE,128,1.0,1.0,47,0.00,,,0.00,125,Wunderground v.1.15,2013-03-03 17:35:00,
2013-03-03 09:40:00,49.7,30.3,30.12,SE,131,1.0,1.0,47,0.00,,,0.00,137,Wunderground v.1.15,2013-03-03 17:40:00,
2013-03-03 09:50:00,49.7,30.3,30.12,SE,142,1.0,2.0,47,0.00,,,0.00,127,Wunderground v.1.15,2013-03-03 17:50:00,
2013-03-03 09:55:00,49.8,30.9,30.12,SE,145,1.0,2.0,48,0.00,,,0.00,151,Wunderground v.1.15,2013-03-03 17:55:00,
2013-03-03 10:05:00,50.0,31.1,30.12,SE,140,1.0,1.0,48,0.00,,,0.00,193,Wunderground v.1.15,2013-03-03 18:05:00,
2013-03-03 10:10:00,50.2,31.2,30.12,SE,134,2.0,2.0,48,0.00,,,0.00,204,Wunderground v.1.15,2013-03-03 18:10:00,
2013-03-03 10:20:00,50.4,31.4,30.12,SSE,157,1.0,1.0,48,0.00,,,0.00,134,Wunderground v.1.15,2013-03-03 18:20:00,
2013-03-03 10:30:00,50.4,31.4,30.12,SE,131,0.0,0.0,48,0.00,,,0.00,153,Wunderground v.1.15,2013-03-03 18:30:00,
2013-03-03 10:35:00,50.5,31.5,30.12,WSW,251,0.0,0.0,48,0.00,,,0.00,144,Wunderground v.1.15,2013-03-03 18:35:00,
2013-03-03 10:45:00,50.5,31.5,30.12,North,351,1.0,1.0,48,0.00,,,0.00,174,Wunderground v.1.15,2013-03-03 18:45:00,
2013-03-03 10:50:00,50.6,31.6,30.12,North,360,1.0,1.0,48,0.00,,,0.00,176,Wunderground v.1.15,2013-03-03 18:50:00,
2013-03-03 11:00:00,50.6,31.6,30.12,North,350,1.0,1.0,48,0.00,,,0.00,193,Wunderground v.1.15,2013-03-03 19:00:00,
2013-03-03 11:05:00,50.8,31.8,30.12,North,11,1.0,1.0,48,0.00,,,0.00,204,Wunderground v.1.15,2013-03-03 19:05:00,
2013-03-03 11:10:00,51.0,32.5,30.12,North,11,1.0,1.0,49,0.00,,,0.00,179,Wunderground v.1.15,2013-03-03 19:10:00,
2013-03-03 11:20:00,51.3,32.8,30.12,North,360,2.0,2.0,49,0.00,,,0.00,209,Wunderground v.1.15,2013-03-03 19:20:00,
2013-03-03 11:30:00,51.3,32.8,30.12,West,259,1.0,1.0,49,0.00,,,0.00,227,Wunderground v.1.15,2013-03-03 19:30:00,
2013-03-03 11:40:00,51.3,33.3,30.13,NNW,340,1.0,1.0,50,0.00,,,0.00,255,Wunderground v.1.15,2013-03-03 19:40:00,
2013-03-03 11:45:00,51.4,33.4,30.13,NNW,332,1.0,1.0,50,0.00,,,0.00,253,Wunderground v.1.15,2013-03-03 19:45:00,
2013-03-03 11:55:00,51.7,33.6,30.12,NNW,341,0.0,2.0,50,0.00,,,0.00,315,Wunderground v.1.15,2013-03-03 19:55:00,
2013-03-03 12:05:00,52.0,33.9,30.12,NNW,344,1.0,1.0,50,0.00,,,0.00,599,Wunderground v.1.15,2013-03-03 20:05:00,
2013-03-03 12:10:00,52.5,34.4,30.12,North,355,1.0,1.0,50,0.00,,,0.00,668,Wunderground v.1.15,2013-03-03 20:10:00,
2013-03-03 12:20:00,52.9,35.2,30.11,North,5,1.0,3.0,51,0.00,,,0.00,288,Wunderground v.1.15,2013-03-03 20:20:00,
2013-03-03 12:30:00,52.7,35.6,30.11,WNW,288,2.0,2.0,52,0.00,,,0.00,325,Wunderground v.1.15,2013-03-03 20:30:00,
2013-03-03 12:35:00,52.4,35.3,30.11,North,360,1.0,2.0,52,0.00,,,0.00,343,Wunderground v.1.15,2013-03-03 20:35:00,
2013-03-03 12:45:00,52.4,35.3,30.11,NNE,13,1.0,1.0,52,0.00,,,0.00,306,Wunderground v.1.15,2013-03-03 20:45:00,
2013-03-03 12:55:00,52.4,35.3,30.10,NNW,338,1.0,4.0,52,0.00,,,0.00,334,Wunderground v.1.15,2013-03-03 20:55:00,
2013-03-03 13:00:00,52.1,35.0,30.10,North,355,2.0,3.0,52,0.00,,,0.00,264,Wunderground v.1.15,2013-03-03 21:00:00,
2013-03-03 13:10:00,52.3,34.7,30.10,NNE,23,1.0,1.0,51,0.00,,,0.00,295,Wunderground v.1.15,2013-03-03 21:10:00,
2013-03-03 13:20:00,52.5,34.9,30.10,North,5,2.0,3.0,51,0.00,,,0.00,283,Wunderground v.1.15,2013-03-03 21:20:00,
2013-03-03 13:30:00,52.4,35.3,30.09,NW,322,2.0,2.0,52,0.00,,,0.00,341,Wunderground v.1.15,2013-03-03 21:30:00,
2013-03-03 13:40:00,52.4,35.3,30.09,NNW,338,2.0,4.0,52,0.00,,,0.00,422,Wunderground v.1.15,2013-03-03 21:40:00,
2013-03-03 13:50:00,52.5,35.4,30.09,NNW,345,3.0,3.0,52,0.00,,,0.00,292,Wunderground v.1.15,2013-03-03 21:50:00,
2013-03-03 13:55:00,52.5,35.4,30.09,WNW,298,2.0,3.0,52,0.00,,,0.00,339,Wunderground v.1.15,2013-03-03 21:55:00,
2013-03-03 14:05:00,52.4,35.3,30.09,NNW,333,2.0,4.0,52,0.00,,,0.00,355,Wunderground v.1.15,2013-03-03 22:05:00,
2013-03-03 14:10:00,52.4,35.8,30.09,NNW,345,2.0,2.0,53,0.00,,,0.00,392,Wunderground v.1.15,2013-03-03 22:10:00,
2013-03-03 14:20:00,52.4,35.8,30.09,NW,318,1.0,1.0,53,0.00,,,0.00,301,Wunderground v.1.15,2013-03-03 22:20:00,
2013-03-03 14:30:00,52.4,35.3,30.09,NNE,17,2.0,2.0,52,0.00,,,0.00,304,Wunderground v.1.15,2013-03-03 22:30:00,
2013-03-03 14:35:00,52.3,35.7,30.09,NW,313,2.0,2.0,53,0.00,,,0.00,315,Wunderground v.1.15,2013-03-03 22:35:00,
2013-03-03 14:45:00,52.3,35.7,30.09,NNE,21,1.0,1.0,53,0.00,,,0.00,304,Wunderground v.1.15,2013-03-03 22:45:00,
2013-03-03 14:55:00,52.3,35.7,30.08,North,349,1.0,1.0,53,0.00,,,0.00,355,Wunderground v.1.15,2013-03-03 22:55:00,
2013-03-03 15:00:00,52.4,35.8,30.08,West,270,1.0,1.0,53,0.00,,,0.00,345,Wunderground v.1.15,2013-03-03 23:00:00,
2013-03-03 15:05:00,52.4,35.8,30.08,NW,321,1.0,1.0,53,0.00,,,0.00,297,Wunderground v.1.15,2013-03-03 23:05:00,
2013-03-03 15:10:00,52.1,35.9,30.08,West,266,1.0,1.0,54,0.00,,,0.00,260,Wunderground v.1.15,2013-03-03 23:10:00,
2013-03-03 15:20:00,51.7,35.6,30.08,North,360,2.0,3.0,54,0.00,,,0.00,272,Wunderground v.1.15,2013-03-03 23:20:00,
2013-03-03 15:25:00,51.7,35.1,30.08,NNW,344,2.0,3.0,53,0.00,,,0.00,264,Wunderground v.1.15,2013-03-03 23:25:00,
2013-03-03 15:30:00,51.7,35.1,30.08,NNW,346,1.0,1.0,53,0.00,,,0.00,251,Wunderground v.1.15,2013-03-03 23:30:00,
2013-03-03 15:40:00,52.3,35.2,30.08,NNW,339,2.0,2.0,52,0.00,,,0.00,236,Wunderground v.1.15,2013-03-03 23:40:00,
2013-03-03 15:45:00,52.4,35.8,30.08,NNW,336,1.0,3.0,53,0.00,,,0.00,204,Wunderground v.1.15,2013-03-03 23:45:00,
2013-03-03 15:50:00,52.1,35.5,30.08,NNW,333,1.0,3.0,53,0.00,,,0.00,216,Wunderground v.1.15,2013-03-03 23:50:00,
2013-03-03 16:00:00,51.5,34.9,30.08,West,267,1.0,1.0,53,0.00,,,0.00,209,Wunderground v.1.15,2013-03-04 00:00:00,
2013-03-03 16:05:00,51.4,34.3,30.08,West,281,1.0,1.0,52,0.00,,,0.00,206,Wunderground v.1.15,2013-03-04 00:05:00,
2013-03-03 16:10:00,51.5,34.4,30.08,ESE,110,1.0,1.0,52,0.00,,,0.00,381,Wunderground v.1.15,2013-03-04 00:10:00,
2013-03-03 16:20:00,52.0,34.9,30.09,West,271,2.0,2.0,52,0.00,,,0.00,304,Wunderground v.1.15,2013-03-04 00:20:00,
2013-03-03 16:30:00,52.2,35.6,30.08,NNW,342,1.0,1.0,53,0.00,,,0.00,269,Wunderground v.1.15,2013-03-04 00:30:00,
2013-03-03 16:35:00,52.2,35.6,30.09,NNW,329,1.0,1.0,53,0.00,,,0.00,246,Wunderground v.1.15,2013-03-04 00:35:00,
2013-03-03 16:45:00,51.8,35.2,30.09,North,349,1.0,3.0,53,0.00,,,0.00,188,Wunderground v.1.15,2013-03-04 00:45:00,
2013-03-03 16:55:00,51.5,34.4,30.08,NNW,347,0.0,1.0,52,0.00,,,0.00,185,Wunderground v.1.15,2013-03-04 00:55:00,
2013-03-03 17:05:00,51.5,34.4,30.09,West,273,1.0,1.0,52,0.00,,,0.00,146,Wunderground v.1.15,2013-03-04 01:05:00,
2013-03-03 17:10:00,51.6,34.0,30.09,NNW,334,0.0,4.0,51,0.00,,,0.00,114,Wunderground v.1.15,2013-03-04 01:10:00,
2013-03-03 17:20:00,51.2,33.7,30.09,North,5,1.0,4.0,51,0.00,,,0.00,63,Wunderground v.1.15,2013-03-04 01:20:00,
2013-03-03 17:25:00,50.8,33.8,30.09,NNW,348,2.0,4.0,52,0.00,,,0.00,49,Wunderground v.1.15,2013-03-04 01:25:00,
2013-03-03 17:35:00,50.4,32.9,30.09,NNE,25,1.0,2.0,51,0.00,,,0.00,28,Wunderground v.1.15,2013-03-04 01:35:00,
2013-03-03 17:45:00,50.0,33.1,30.09,North,360,1.0,3.0,52,0.00,,,0.00,23,Wunderground v.1.15,2013-03-04 01:45:00,
2013-03-03 17:55:00,49.8,32.4,30.10,NW,315,1.0,1.0,51,0.00,,,0.00,21,Wunderground v.1.15,2013-03-04 01:55:00,
2013-03-03 18:05:00,49.6,32.2,30.10,North,5,2.0,2.0,51,0.00,,,0.00,11,Wunderground v.1.15,2013-03-04 02:05:00,
2013-03-03 18:10:00,49.4,32.0,30.10,North,350,1.0,1.0,51,0.00,,,0.00,5,Wunderground v.1.15,2013-03-04 02:10:00,
2013-03-03 18:20:00,49.0,32.1,30.10,NNW,346,1.0,1.0,52,0.00,,,0.00,0,Wunderground v.1.15,2013-03-04 02:20:00,
2013-03-03 18:30:00,48.8,31.9,30.10,NNE,27,0.0,0.0,52,0.00,,,0.00,0,Wunderground v.1.15,2013-03-04 02:30:00,
2013-03-03 18:35:00,48.7,31.8,30.10,NNE,27,0.0,0.0,52,0.00,,,0.00,0,Wunderground v.1.15,2013-03-04 02:35:00,
2013-03-03 18:45:00,48.4,31.1,30.11,NNE,27,0.0,0.0,51,0.00,,,0.00,0,Wunderground v.1.15,2013-03-04 02:45:00,
2013-03-03 18:55:00,48.2,30.9,30.11,NNE,29,0.0,0.0,51,0.00,,,0.00,0,Wunderground v.1.15,2013-03-04 02:55:00,
2013-03-03 19:00:00,47.8,30.5,30.11,NNE,27,0.0,0.0,51,0.00,,,0.00,0,Wunderground v.1.15,2013-03-04 03:00:00,
2013-03-03 19:10:00,47.2,30.0,30.10,NNE,28,0.0,0.0,51,0.00,,,0.00,0,Wunderground v.1.15,2013-03-04 03:10:00,
2013-03-03 19:20:00,46.6,29.9,30.10,NNE,27,0.0,0.0,52,0.00,,,0.00,0,Wunderground v.1.15,2013-03-04 03:20:00,
2013-03-03 19:30:00,46.0,29.3,30.10,NNE,29,0.0,0.0,52,0.00,,,0.00,0,Wunderground v.1.15,2013-03-04 03:30:00,
2013-03-03 19:40:00,45.4,28.8,30.10,NNE,28,0.0,0.0,52,0.00,,,0.00,0,Wunderground v.1.15,2013-03-04 03:40:00,
2013-03-03 19:50:00,44.9,28.3,30.10,NNE,29,0.0,0.0,52,0.00,,,0.00,0,Wunderground v.1.15,2013-03-04 03:50:00,
2013-03-03 20:00:00,44.4,27.4,30.09,NNE,28,0.0,0.0,51,0.00,,,0.00,0,Wunderground v.1.15,2013-03-04 04:00:00,
2013-03-03 20:10:00,44.1,27.1,30.09,NNE,30,0.0,0.0,51,0.00,,,0.00,0,Wunderground v.1.15,2013-03-04 04:10:00,
2013-03-03 20:20:00,43.8,26.8,30.09,NNE,28,0.0,0.0,51,0.00,,,0.00,0,Wunderground v.1.15,2013-03-04 04:20:00,
2013-03-03 20:25:00,43.6,26.6,30.09,NNE,28,0.0,0.0,51,0.00,,,0.00,0,Wunderground v.1.15,2013-03-04 04:25:00,
2013-03-03 20:35:00,43.2,26.3,30.09,NNE,28,0.0,0.0,51,0.00,,,0.00,0,Wunderground v.1.15,2013-03-04 04:35:00,
2013-03-03 20:40:00,43.0,26.1,30.09,NNE,27,0.0,0.0,51,0.00,,,0.00,0,Wunderground v.1.15,2013-03-04 04:40:00,
2013-03-03 20:50:00,42.6,25.7,30.09,NNE,27,0.0,0.0,51,0.00,,,0.00,0,Wunderground v.1.15,2013-03-04 04:50:00,
2013-03-03 21:00:00,42.4,25.1,30.09,NNE,30,0.0,0.0,50,0.00,,,0.00,0,Wunderground v.1.15,2013-03-04 05:00:00,
2013-03-03 21:05:00,42.3,25.0,30.10,NNE,27,0.0,0.0,50,0.00,,,0.00,0,Wunderground v.1.15,2013-03-04 05:05:00,
2013-03-03 21:10:00,42.2,24.9,30.09,NNE,27,0.0,0.0,50,0.00,,,0.00,0,Wunderground v.1.15,2013-03-04 05:10:00,
2013-03-03 21:20:00,42.2,24.9,30.10,NNE,28,0.0,0.0,50,0.00,,,0.00,0,Wunderground v.1.15,2013-03-04 05:20:00,
2013-03-03 21:30:00,42.2,24.9,30.10,NNE,29,0.0,0.0,50,0.00,,,0.00,0,Wunderground v.1.15,2013-03-04 05:30:00,
2013-03-03 21:35:00,42.3,25.0,30.10,NNE,29,0.0,0.0,50,0.00,,,0.00,0,Wunderground v.1.15,2013-03-04 05:35:00,
2013-03-03 21:45:00,42.5,24.7,30.10,NNE,28,0.0,0.0,49,0.00,,,0.00,0,Wunderground v.1.15,2013-03-04 05:45:00,
2013-03-03 21:50:00,42.7,24.8,30.10,NNE,28,0.0,0.0,49,0.00,,,0.00,0,Wunderground v.1.15,2013-03-04 05:50:00,
2013-03-03 21:55:00,42.9,25.0,30.10,NNE,27,0.0,0.0,49,0.00,,,0.00,0,Wunderground v.1.15,2013-03-04 05:55:00,
2013-03-03 22:05:00,43.3,25.4,30.09,NNE,30,0.0,0.0,49,0.00,,,0.00,0,Wunderground v.1.15,2013-03-04 06:05:00,
2013-03-03 22:10:00,43.5,25.6,30.09,NNE,28,0.0,0.0,49,0.00,,,0.00,0,Wunderground v.1.15,2013-03-04 06:10:00,
2013-03-03 22:20:00,43.6,25.7,30.09,NNE,27,0.0,0.0,49,0.00,,,0.00,0,Wunderground v.1.15,2013-03-04 06:20:00,
2013-03-03 22:30:00,43.5,25.6,30.09,NNE,29,0.0,0.0,49,0.00,,,0.00,0,Wunderground v.1.15,2013-03-04 06:30:00,
2013-03-03 22:35:00,43.5,25.6,30.09,NNE,27,0.0,0.0,49,0.00,,,0.00,0,Wunderground v.1.15,2013-03-04 06:35:00,
2013-03-03 22:45:00,43.6,25.7,30.08,NNE,28,0.0,0.0,49,0.00,,,0.00,0,Wunderground v.1.15,2013-03-04 06:45:00,
2013-03-03 22:55:00,44.1,25.6,30.08,NNE,28,0.0,0.0,48,0.00,,,0.00,0,Wunderground v.1.15,2013-03-04 06:55:00,
2013-03-03 23:05:00,44.6,26.1,30.08,NNE,27,0.0,0.0,48,0.00,,,0.00,0,Wunderground v.1.15,2013-03-04 07:05:00,
2013-03-03 23:10:00,44.7,26.2,30.08,NNE,28,0.0,0.0,48,0.00,,,0.00,0,Wunderground v.1.15,2013-03-04 07:10:00,
2013-03-03 23:20:00,45.0,26.5,30.07,SSE,156,0.0,0.0,48,0.00,,,0.00,0,Wunderground v.1.15,2013-03-04 07:20:00,
2013-03-03 23:30:00,45.0,26.5,30.07,SSE,155,0.0,0.0,48,0.00,,,0.00,0,Wunderground v.1.15,2013-03-04 07:30:00,
2013-03-03 23:40:00,45.2,26.7,30.06,SSE,155,0.0,0.0,48,0.00,,,0.00,0,Wunderground v.1.15,2013-03-04 07:40:00,
2013-03-03 23:50:00,45.4,26.8,30.07,SE,140,0.0,0.0,48,0.00,,,0.00,0,Wunderground v.1.15,2013-03-04 07:50:00,
2013-03-03 23:55:00,45.4,26.8,30.07,SE,142,0.0,0.0,48,0.00,,,0.00,0,Wunderground v.1.15,2013-03-04 07:55:00,